Home > Weather > Mashhad > Past weeks

Flag for Iran Weather for the Past 2 Weeks in Mashhad, Iran

Now
59 °F

Passing clouds.


Feels Like: 59 °F
Forecast: 39 / 50 °F
Wind: 5 mph from Northeast

Location: Mashhad Airport

Current Time: Feb 7, 2016 at 10:38:57 AM

Latest Report: Feb 7, 2016 at 10:00 AM


Visibility: N/A

Pressure: 29.98 "Hg (26.69 "Hg at 981m altitude)

Humidity: 29%

Dew point: 27 °F

Location of MashhadLocation

Historic Weather in Mashhad — Graph

°F

Mashhad Temperature Yesterday

Maximum temperature yesterday: 66 °F (at 2:00 PM)
Minimum temperature yesterday: 32 °F (at 5:00 AM)
Average temperature yesterday: 50 °F

High & Low Weather Summary for the Past Weeks

 TemperatureHumidityPressure
High70 °F (Jan 24, 1:30 PM)100% (Jan 26, 2:00 AM)30.39 "Hg (Jan 26, 2:00 AM)
Low23 °F (Jan 30, 7:00 AM)13% (Jan 23, 2:30 PM)29.77 "Hg (Jan 25, 1:30 PM)
Average42 °F65%30.12 "Hg
* Reported Jan 23 9:30 AM — Feb 7 9:30 AM, Mashhad, Weather by CustomWeather, © 2016

Note: Actual official high and low records may vary slightly from our data, if they occured in-between our weather recording intervals... More about our weather records

Advertising

Mashhad Weather History for the Previous 24 Hours

 ConditionsComfort  
Time TempWeatherWind HumidityBarometerVisibility
9:30 AM
Sun, Feb 7
54 °FSunny.5 mph30%29.98 "Hg10 mi
9:00 AM54 °FSunny.7 mph30%29.98 "Hg10 mi
8:30 AM52 °FSunny.5 mph32%29.98 "Hg10 mi
8:00 AM46 °FSunny.5 mph40%29.98 "Hg10 mi
7:00 AM41 °FSunny.5 mph49%29.95 "Hg10 mi
6:30 AM36 °FClear.5 mph65%29.92 "Hg10 mi
6:00 AM45 °FClear.7 mph37%29.92 "Hg5 mi
5:30 AM41 °FClear.7 mph49%29.92 "Hg5 mi
5:00 AM39 °FClear.No wind56%29.92 "Hg5 mi
4:30 AM41 °FClear.No wind53%29.92 "Hg5 mi
4:00 AM41 °FClear.5 mph53%29.92 "Hg10 mi
3:30 AM41 °FClear.5 mph49%29.92 "Hg10 mi
3:00 AM39 °FClear.5 mph56%29.92 "Hg10 mi
2:30 AM45 °FClear.5 mph42%29.92 "Hg10 mi
2:00 AM45 °FClear.7 mph42%29.92 "Hg10 mi
1:30 AM45 °FClear.5 mph46%29.92 "Hg10 mi
12:30 AM45 °FClear.7 mph42%29.92 "Hg10 mi
12:00 AM45 °FClear.7 mph42%29.92 "Hg10 mi
11:30 PM
Sat, Feb 6
46 °FClear.5 mph40%29.92 "Hg10 mi
11:00 PM46 °FClear.7 mph43%29.92 "Hg10 mi
10:30 PM46 °FClear.5 mph43%29.92 "Hg10 mi
10:00 PM50 °FClear.7 mph35%29.92 "Hg10 mi
9:30 PM48 °FClear.5 mph40%29.92 "Hg10 mi
9:00 PM48 °FClear.5 mph43%29.92 "Hg10 mi
8:30 PM50 °FClear.5 mph40%29.92 "Hg10 mi
8:00 PM50 °FClear.7 mph40%29.92 "Hg10 mi
7:30 PM52 °FClear.7 mph38%29.92 "Hg10 mi
7:00 PM55 °FClear.7 mph28%29.92 "Hg10 mi
6:30 PM55 °FClear.7 mph28%29.89 "Hg5 mi
6:00 PM55 °FClear.9 mph31%29.89 "Hg5 mi
5:30 PM57 °FSunny.5 mph29%29.89 "Hg10 mi
5:00 PM61 °FSunny.5 mph23%29.89 "Hg10 mi
4:30 PM64 °FSunny.5 mph21%29.89 "Hg10 mi
4:00 PM66 °FSunny.5 mph18%29.89 "Hg10 mi
3:30 PM66 °FSunny.5 mph19%29.89 "Hg10 mi
3:00 PM66 °FSunny.7 mph19%29.92 "Hg10 mi
2:30 PM66 °FSunny.7 mph19%29.92 "Hg10 mi
2:00 PM66 °FSunny.5 mph18%29.92 "Hg10 mi
1:30 PM64 °FSunny.7 mph19%29.92 "Hg10 mi
1:00 PM64 °FSunny.No wind19%29.95 "Hg10 mi
12:30 PM61 °FSunny.9 mph22%29.98 "Hg10 mi
12:00 PM61 °FSunny.No wind22%29.98 "Hg10 mi
11:30 AM59 °FSunny.5 mph23%30.01 "Hg10 mi
11:00 AM59 °FSunny.7 mph27%30.01 "Hg10 mi
10:30 AM54 °FSunny.9 mph35%30.04 "Hg10 mi
10:00 AM54 °FSunny.7 mph35%30.04 "Hg10 mi
Weather by CustomWeather, © 2016

See weather overviewHow to use our weather pages